Погода в Калининграде

Погода в Калининграде : погода сейчас, прогноз погоды и архив. Всё, что Вы хотите узнать о погоде в Калининграде!

Хотите узнать прогноз погоды в Калининграде? Тогда Вам сюда: Погода в Калининграде

Поиск расширенной информации на нашем сайте:

Другие новости

Новости СМИ2

Главная страница сайта

Новости сайта

03.07.2017

Напоминаем, что на нашем специализированном сайте Метеоцентр.Азия вы можете получить высокодетализированные автоматические прогнозы погоды по пунктам России, СНГ и мира в авиационном формате (включающие направление и скорость ветра, видимость, явления погоды, количество и форму облачности, нижнюю и верхнюю границу облачности).

Рекомендуем: Стоимость услуги по Выравниванию земельного участка.

Погода в Калининграде - сегодня

Время (UTC), дата Ветер
(°,м/с) 
Видим.   Явления Облачность Т
(°С)
Тd
(°С)
f(%) Тe
(°С)
Pmin
(гПа)
dP
(гПа)
Po
(мм)
O2
(г/м3)
Тmin Tmax R s Состояние
почвы
18 17.11.17 250 (З) 1-2{05}  4000 м  дымка  8/8 600 м 
[Sc]
+5 +2.7 85 +6  1019.3  762  301    +9.1  0.8     
21 17.11.17 250 (З) 2-5{06}  4000 м  дымка{ливн. осадки}  8/8 600 м 
[Sc]
+5.5 +3.6 88 +5  1019  -0.3  762  301           
00 18.11.17 230 (ЮЗ) 2-4{07}  4000 м  дымка{ливн. осадки}  1/1 600 м 
[Sc]
+3.3 +2.4 94 +3  1018.1  -1  761  303           
03 18.11.17 230 (ЮЗ) 1-4{06}  4000 м  дымка  8/8 600 м 
[Sc]
+2.8 +2 94 +4  1016.6  -1.5  760  303  +2.5    0.0     
06 18.11.17 220 (ЮЗ) 1-3{05}  4000 м  дымка  8/4 600 м средняя 
[Sc|Ac trans]
+2.1 +1.6 96 +3  1014.4  -2.1  759  303  +1.6    0.0     
09 18.11.17 220 (ЮЗ) 1-5{06}  10 км    10/6 600 м верхняя 
[Sc|Ci fib]
+4.7 +2 83 +6  1012.6  -1.8  757  300           
12 18.11.17 220 (ЮЗ) 2-6{08}  10 км    9/9 600 м 
[Sc]
+6 +2 75 +6  1009.6  -2.9  755  297           
15 18.11.17 200 (Ю) 2-4{07}  10 км    10/5 600 м средняя, верхняя 
[Sc|Ac trans|Cs]
+4.6 +0.4 74 +4  1007.1  -2.6  753  298           
18 18.11.17 210 (ЮЗ) 2-7{10}  10 км    10/10 600 м 
[Sc]
+4.3 +0.1 74 +4  1004.2  -2.9  751  298    +6       
21 18.11.17 220 (ЮЗ) 2-6{09}  4000 м  слаб. дождь  10/10 300 м 
[Frnb|Ns]
+2.8 +1.9 94 +2  1002.4  -1.8  750  299           
00 19.11.17 230 (ЮЗ) 2-5{07}  4000 м  слаб. дождь  10/10 300 м 
[Frnb|Ns]
+2.1 +1.7 97 +1  1001.1  -1.3  749  299           
03 19.11.17 230 (ЮЗ) 2-6{06}  4000 м  дымка{дождь}  8/8 600 м 
[Sc]
+2.2 +1.6 96 +2  1000.1  -0.9  748  299  +1.7       
06 19.11.17 210 (ЮЗ) 1-5{08}  4000 м  дымка{ливн. осадки, дождь}  10/10 300 м 
[Cu Sc]
+2.1 +1.6 96 +3  999  -1.1  747  299  +1.7       
09 19.11.17 230 (ЮЗ) 3-8{10}  4000 м  слаб. дождь  10/10 300 м 
[Frnb|Ns]
+4.3 +3.2 93 +3  998.6  -0.3  747  296           
12 19.11.17 230 (ЮЗ) 3-6{12}  10 км  {дождь}  10/10 300 м 
[Cu Sc]
+5.2 +2.3 82 +4  998.2  -0.4  747  295           
15 19.11.17 210 (ЮЗ) 1-5{07}  4000 м  слаб. дождь  10/10 300 м 
[Frnb|Ns]
+4 +2.5 90 +5  997.8  -0.4  746  296         
18 19.11.17 180 (Ю) 2-5{07}  4000 м  дымка{дождь}  10/10 600 м 
[Sc]
+3.6 +2.4 92 +3  997.4  -0.4  746  296    +5.4     
21 19.11.17 210 (ЮЗ) 1-5{05}  4000 м  дымка  10/10 600 м 
[Sc]
+3.7 +2.9 94 +5  998  0.6  746  296           
00 20.11.17 230 (ЮЗ) 1-4{06}  4000 м  слаб. дождь  10/10 300 м 
[Frnb|Ns]
+3.6 +2.3 91 +4  998.9  0.6  747  297           
03 20.11.17 230 (ЮЗ) 1-3{05}  4000 м  дымка{дождь}  10/10 600 м 
[Sc]
+2.8 +2.1 95 +4  999.8  748  298  +2.8    0.5     
06 20.11.17 300 (СЗ) 1-2{05}  4000 м  дымка{дождь}  10/10 300 м 
[Sc]
+3.8 +3.2 96 +5  1001.9  749  297  +2.8    0.8     
09 20.11.17 320 (СЗ) 3-6{08}  4000 м  ливневой дождь со снегом  10/10 300 м кучево-дожд. 
[Cb cap]
+2 +1.3 95 +1  1004.6  2.7  751  300           
12 20.11.17 300 (СЗ) 2-5{08}  4000 м  в посл. час дождь{ливн. осадки}  10/10 300 м 
[Sc]
+3.8 +1.3 84 +3  1005.7  1.1  752  299           
15 20.11.17 260 (З) 1-4{07}  4000 м  дымка  9/9 600 м 
[Cu Sc]
+2.8 +0.9 87 +4  1006.8  1.1  753  300      10     
18 20.11.17 300 (СЗ) 1-2{06}  4000 м  ливневой дождь со снегом  10/10 300 м кучево-дожд. 
[Cb cap]
+0.9 +0.6 98 +2  1008.2  1.4  754  303    +4.1  14     
Время (UTC), дата Ветер
(°,м/с) 
Видим.   Явления Облачность Т
(°С)
Тd
(°С)
f(%) Тe
(°С)
Pmin
(гПа)
dP
(гПа)
Po
(мм)
O2
(г/м3)
Тmin Tmax R s Состояние
почвы

Для получения пояснительной информации подведите курсор к названию столбца.

ПОГОДА в Калининграде - архив

Всё, что Вы хотите узнать о погоде в Калининграде - удобно и подробно!

Выберите нужную дату (начиная с 1 января 2015* года) и нажмите кнопку "Найти".
Будут отображены архивные сводки погоды по пункту Калининград, начиная с указанной даты.


Отображать данные в формате CSV (для использования в таблицах Excel)


Внимание! Наш архив погоды предназначен исключительно для личного некоммерческого использования в познавательных целях. Если Вам необходимы официальные справки о состоянии погоды (для производственных, юридических, коммерческих и т.п. целей), обращайтесь в органы Росгидромета.

*Примечание: данная дата относится к архиву по метеостанциям СССР (Россия, СНГ, Балтия).
Архив по метеостанциям Зарубежной Европы и Азии (кроме Китая) хранится 10 дней, по другим регионам земного шара (Китай, Африка, Америка, Австралия, Океания) - 1 день.

Калининград - район местоположения метеостанции


Название, широта, долгота, высота метеостанции:
Калининград (город) 54.7°ш. 20.6°д. 21 м над ур. моря [Российская Федерация]

Дополнительная информация

В oтличие oт бoльшинства пoгoдных сайтoв мы публикуем пoдрoбную метеoинфoрмацию в детальнoм прoфессиoнальнoм фoрмате.

Характеристики температуры и влажнoсти вoздуха измеряются на высoте 2 м в тени вдали oт зданий и деревьев.
Скoрoсть ветра измеряется на высoте 10 м (на урoвне рoста челoвека скoрoсть ветра ниже в 1.5-2 раза). Если метеoстанция нахoдится в гoрoде или в лесу, тo скoрoсть ветра занижена на 2-4 м/с пo сравнению с oткрытым местoм. Скoрoсть ветра над акватoриями крупных рек и oзёр, а также на вершинах хoлмoв на 2-5 м/с выше, чем в oбычных услoвиях.
Атмoсфернoе давление в разных тoчках местнoсти мoжет значительнo oтличаться oт давления на метеoстанции, в зависимoсти oт услoвий рельефа (при пoдъёме на 10 м давление пoнижается примернo на 1 мм рт.ст.).